星链-32534 (STARLINK-32534)

导读

STARLINK-32534是美国SpaceX公司星链(Starlink)低轨通信星座的组网卫星,于2024年11月30日发射入轨,属于星链大规模星座部署的组成部分。作为量产型低轨通信卫星,它搭载Ku/Ka波段通信载荷,采用霍尔推进器与自主避撞技术,旨在为全球提供覆盖广泛的宽带互联网服务,寿命末期会主动离轨坠入大气层焚毁。

Basic Information
目录编号:
62175
目录名称:
STARLINK-32534
国际标识:
2024-225N
轨道中心:
EARTH
卫星名称:
星链-32534
卫星全名:
星链-32534 (STARLINK-32534)
卫星状态:
在轨 (已飞行651 天)
发射日期:
2024-11-30 UTC
国别 :
美国 (US)
星等 :
--
This satellite is enrolled in the Space Conjunction Data Service (SCDS) and the current flight risk assessment level is: No High Risk
Orbit Information
数据来源 国际轨道数据
星历时间: 2026-09-12T02:23:37+0800
11小时前
查看轨道信息
半长轴: 6950.191km
偏心率: 0.0002313
轨道倾角: 70.002°
近地点辐角 267.447°
升交点赤经 55.444°
平近点角 92.642°
近地点: 570.446km
远地点: 573.662km
周期: 96.107分钟
每日圈数: 14.983309
Detailed Information
固有亮度:
5
最大亮度:
2.5
卫星平台:
Starlink V1.0
覆盖范围:
全球
运营商:
太空探索技术公司
运营商所在国:
美国
制造商(研发单位):
太空探索技术公司
制造商所在国:
美国
使用方式:
暂无
Satellite Introduction
Starlink 计划是 SpaceX 推出的全球卫星互联网项目,通过发射低轨道卫星,为全球尤其是偏远地区提供高速、低延迟的互联网服务。自 2019 年起,Starlink 已部署数千颗卫星,旨在缩小全球数字鸿沟,推动互联网普及。该项目还为军事、航空等行业提供通信支持,带来广泛经济效益。
2D Orbit Map
3D Orbit Map
Orbit Altitude Analysis Chart
Orbit Inclination Analysis Chart
Orbit Comprehensive Analysis Chart
View Comprehensive Chart
Conjunction Data List
Event ID Objects TCA Miss Dist (km) Collision Risk Probability Collision Risk Index (CRI) Action
CDM_260911-210100-515606-217524
2026-09-11T
21:01:20+0000
1.200 km
极远距离
1.300283E-5 中风险 0.57
CDM_260913-170402-335906-217522
2026-09-13T
17:04:23+0000
2.614 km
极远距离
1.457765E-6 低风险 0.38
CDM_260912-092006-217506-849422
2026-09-12T
09:20:11+0000
2.914 km
极远距离
1.389588E-6 低风险 0.38
CDM_260912-094906-065406-217521
2026-09-12T
09:49:32+0000
2.987 km
极远距离
1.33885E-6 低风险 0.38
Miss Distance Evolution Trend with All Objects
Collision Probability Evolution Trend with All Objects